User: anonymous   Login
Location: Caltech
(34.1382°N, 118.1253°W)
Time: 02:48:13
(UTC-07:00)
Language:

CZ-2C R/B - Orbit

View from above orbital plane
View from above orbital plane
View from above satellite
View from above satellite

Ground track
Ground track

The orbit data is extracted from the following two-line orbital elements,

1 36089U 09061B   15212.07755762  .00000125  00000-0  42619-4 0  9996
2 36089 098.0694 233.2804 0082235 002.4757 058.5437 14.49472380302167
Epoch (UTC): 31 July 2015 01:51:40
Eccentricity: 0.0082235
inclination: 98.0694°
perigee height: 669 km
apogee height: 786 km
right ascension of ascending node: 233.2804°
argument of perigee: 2.4757°
revolutions per day: 14.49472380
mean anomaly at epoch: 58.5437°
orbit number at epoch: 30216

The dashed part of the orbit path shows where the satellite is in the earth's shadow,  

DLR